Regional Weather Roundup
Issued by NWS Charleston, SC

Current Version | Previous Version | Graphics & Text | Print | Product List | Glossary On
Versions: 1 2 3 4 5 6 7 8 9 10 11 12 13 14 15 16 17 18 19 20 21 22 23 24 25 26 27 28 29 30 31 32 33 34 35 36 37 38 39 40 41 42 43 44 45 46 47 48 49 50
147
ASUS42 KCHS 272227
RWRCHS

REGIONAL WEATHER ROUNDUP
NATIONAL WEATHER SERVICE CHARLESTON SC
600 PM EDT TUE JUN 27 2017

NOTE: "FAIR" INDICATES FEW OR NO CLOUDS BELOW 12,000 FEET WITH NO
SIGNIFICANT WEATHER AND/OR OBSTRUCTIONS TO VISIBILITY.

NOT ALL STATIONS ARE QUALITY CONTROLLED. USE DATA WITH CAUTION...
ESPECIALLY DEWPOINT OBSERVATIONS.

SCZ027-030-031-034>040-042>050-272300-
...SOUTHEAST SOUTH CAROLINA...

CITY           SKY/WX    TMP DP  RH WIND       PRES   REMARKS
N CHARLESTON   CLOUDY    83  60  45 SE10      30.00F
WATERFRONT PRK   N/A     83  66  56 SE9       30.00R
JOHNS ISLAND   FAIR      82  66  57 E7        30.01S
PINOPOLIS        N/A     82  70  65 N7        29.94S
MONCKS CORNER  FAIR      81  66  61 CALM      30.00F
SUMMERVILLE    CLOUDY    81  68  65 CALM      30.01F
BEAUFORT MCAS  CLOUDY    83  69  62 SE3       30.01S
BEAUFORT ARPT  FAIR      81  68  65 CALM      30.00F
HILTON HEAD IS SUNNY     82  68  61 E8        30.02S
WALTERBORO     MOCLDY    82  68  61 N5        30.01F
ALLENDALE      FAIR      84  66  54 CALM      29.99F

...SOUTHERN MIDLANDS AND PEE DEE...

CITY           SKY/WX    TMP DP  RH WIND       PRES   REMARKS
GEORGETOWN     MOCLDY    81  64  57 SE5       30.02S
KINGSTREE      FAIR      81  63  54 CALM      30.01S
ORANGEBURG     PTSUNNY   84  63  49 NE3       30.01S
BARNWELL       FAIR      84  68  58 NE3       30.00F
AIKEN          FAIR      82  59  44 NE9       30.05F
MANNING        FAIR      81  70  69 E5        30.01F
COLUMBIA       CLOUDY    88  58  36 N6        30.00F
SUMTER         PTSUNNY   84  60  43 E5        29.99S
FLORENCE       CLOUDY    84  60  44 NE6       30.01F
MYRTLE BEACH   PTSUNNY   82  66  57 S12       30.02S
N MYRTLE BEACH CLOUDY    81  66  60 S7        30.00F

$$

GAZ063-065-086>088-099>101-113>116-118-119-134>141-150-272300-
...SOUTHEAST GEORGIA...

CITY           SKY/WX    TMP DP  RH WIND       PRES   REMARKS
SAVANNAH ARPT  PTSUNNY   81  68  64 SE12      30.01F
HUNTER AAF     PTSUNNY   80  70  72 SE8       29.98
FORT STEWART   NOT AVBL
STATESBORO     CLOUDY    86  67  53 E3        30.00F
SYLVANIA       CLOUDY    87  70  57 E3        30.01F HX  92
CLAXTON        MOCLDY    80  71  75 E6        30.00F

...CSRA...CENTRAL AND FAR SOUTHEAST GEORGIA...

CITY           SKY/WX    TMP DP  RH WIND       PRES   REMARKS
THOMSON        CLOUDY    84  58  40 E8        30.06F
AUGUSTA-BUSH   PTSUNNY   87  62  43 E7        29.99F
AUGUSTA-DANIEL CLOUDY    88  54  31 NW8       30.01F
SWAINSBORO     FAIR      82  64  54 CALM      30.02F
VIDALIA        PTSUNNY   82  68  61 NE5       30.00F
EASTMAN        FAIR      83  53  35 N5        30.03F
HAZLEHURST     FAIR      84  68  57 N6        29.99S
ALMA           PTSUNNY   89  68  49 VRB6      29.99R HX  93
WAYCROSS       CLOUDY    78  78 100 SE5       30.00S
JESUP          FAIR      73  68  83 CALM      30.01S
BAXLEY         PTSUNNY   82  75  78 SE7       30.00R
BRUNSWICK      CLOUDY    73  70  88 NE5       30.00F
SAINT SIMONS   LGT RAIN  77  68  73 N8        30.00F

$$

SCZ027-028-034-036>038-045-046-048>050-GAZ119-141-272300-
...LAKE AND SUPPLEMENTAL COASTAL OBSERVATIONS...

STATION/POSITION TIME  TEMP    WIND        PRES    WAVE   SWELL
                       AIR SEA DIR/SP/G            HT/PER HT/PER/DIR
                 (UTC) (F)     (DEG/KT/KT) (MB)    (FT/S) (FT/S/D)
WINYAH BAY       2145   81     140/  7     1016.0S
LAKE MURRAY      2220   83      80/  3/  5 1014.9
ACE BASIN NERRS  2145   83     120/  2     1016.0S
FORT PULASKI     2200   80 84  140/  6/  8 1016.4
SAPELO ISLAND    2200   71      80/  8     1016.0

$$

ANZ835-935-AMZ111-154-330-350-352-354-370-450-454-472-272300-
...C-MAN AND BUOY OBSERVATIONS...

STATION/POSITION TIME  TEMP    WIND        PRES    WAVE   SWELL
                       AIR SEA DIR/SP/G            HT/PER HT/PER/DIR
                 (UTC) (F)     (DEG/KT/KT) (MB)    (FT/S) (FT/S/D)
BUOY 41004       2210   80 81   70/  8/ 10 1016.0
BUOY 41008       2150   80 82   20/ 14/ 16 1015.7F   2/ 3   2/120/ 8
FOLLY BEACH CMAN 2200   81     120/ 11/ 13 1017.0F
CAPERS NEARSHORE 2208   86 84  140/ 10/ 14 1016.1F
FRIPP NEARSHORE  2208   81 83  120/ 10/ 14 1015.6F


STATION/POSITION TIME  TEMP    WIND        PRES    WAVE   SWELL
                       AIR SEA DIR/SP/G            HT/PER HT/PER/DIR
                 (UTC) (F)     (DEG/KT/KT) (MB)    (FT/S) (FT/S/D)
5E ST. MARYS GA  2200      81                N/A     2/ 7
FRYING PAN BUOY  2210   80 82  110/  4/  4 1016.0
BUOY 41025       2150   80 83  210/  2/  4 1015.8F   2/ 6   2/100/ 6
CAPE LOOKOUT NC  2200   80     190/  5/  6 1015.6F
BUOY 41002       2150   77 80  240/  8/ 12 1016.3R   3/ 6   3/200/ 6
BUOY 41010       2210   79 84  360/ 10/ 12 1015.4
ST AUGUSTINE FL  2200   76 81  350/ 12/ 13 1016.5R


$$




USA.gov is the U.S. government's official web portal to all federal, state and local government web resources and services.